Location: Recife
(8.0585°S, 34.8848°W)
Time: 12:08:46
(UTC-03:00)

Vanguard 1 Rocket - Pass Details

Date: 18 April 2026
Orbit: 655 x 4212 km, 34.3° (Epoch: 12 May)

Event Time Altitude Azimuth Distance (km) Brightness Sun altitude
Rises 20:12:02 0° 273° (W) 7,104 12.7 -43.9°
Reaches altitude 10° 20:18:13 10° 287° (WNW) 6,581 12.3 -45.4°
Maximum altitude 20:34:42 24° 332° (NNW) 6,212 11.7 -49.5°
Drops below altitude 10° 20:53:06 10° 18° (NNE) 7,170 11.8 -54.0°
Sets 21:00:42 0° 32° (NNE) 7,818 12.0 -55.8°
